星链-3684 (STARLINK-3684 )

导读

STARLINK-3684是美国SpaceX公司星链(Starlink)卫星互联网项目中的一颗低轨通信卫星,于2022年3月19日发射入轨。作为星链星座的组成部分,它运行在近地轨道,依托星链规模化部署和激光通信技术优势,为全球提供高速低延迟宽带互联网服务,尤其助力偏远地区、基础设施薄弱区域实现网络覆盖,推动全球天地一体化网络建设。

基本信息
目录编号:
52124
目录名称:
STARLINK-3684
国际标识:
2022-029AN
轨道中心:
EARTH
卫星名称:
星链-3684
卫星全名:
星链-3684 (STARLINK-3684 )
卫星状态:
已陨落 最后检测时间 2025-01-04
发射日期:
2022-03-19 UTC
国别 :
美国 (US)
星等 :
--
轨道信息
数据来源 国际轨道数据
星历时间: 2025-01-05T05:02:00+0800
轨道信息已过期528天
半长轴: 6527.836km
偏心率: 0.0003112
轨道倾角: 53.194°
近地点辐角 230.727°
升交点赤经 181.715°
平近点角 236.373°
近地点: 147.669km
远地点: 151.733km
周期: 87.481分钟
每日圈数: 16.460726
详细信息
固有亮度:
5
最大亮度:
2.5
卫星平台:
Starlink v1.5
覆盖范围:
全球
运营商:
太空探索技术公司
运营商所在国:
美国
制造商(研发单位):
太空探索技术公司
制造商所在国:
美国
使用方式:
暂无
卫星简介
星链(Starlink)计划是由太空探索技术公司(SpaceX)提出的一个巨型低轨卫星互联网星座项目,计划在2019年至2024年间在太空搭建由约1.2万颗卫星组成的“星链”网络,其中1584颗将部署在地球上空550千米处的近地轨道,并从2020年开始工作。该卫星仍在工作。